Location: Brede
(50.9167°N, 0.6000°E)
Time: 18:30:14
(UTC+00:00)

Tiros 1 despin weight - Pass Details

Date: 29 November 2020
Orbit: 594 x 641 km, 48.2° (Epoch: 15 January)

Event Time Altitude Azimuth Distance (km) Brightness Sun altitude
Rises 17:55:08 0° 278° (W) 2,942 ? -18.0°
Reaches altitude 10° 17:58:09 10° 259° (WSW) 2,025 ? -18.5°
Maximum altitude 18:01:10 17° 218° (SW) 1,593 ? -18.9°
Drops below altitude 10° 18:04:09 10° 177° (S) 2,004 ? -19.4°
Sets 18:07:07 0° 158° (SSE) 2,899 ? -19.9°
